Tracking 33470 objects as of 12-Mar-2026
HD Live streaming from Space Station
objects crossing your sky now

COSMOS 2143 DEB

Track COSMOS 2143 DEB now!
10-day predictions


NORAD ID: 57725
Int'l Code: 1991-033N
Perigee: 1,343.5 km
Apogee: 1,505.7 km
Inclination: 82.8 °
Period: 114.2 minutes
Semi major axis: 7795 km
RCS: Unknown
Launch date: May 16, 1991
Source: Commonwealth of Independent States (former USSR) (CIS)
Launch site: PLESETSK MISSILE AND SPACE COMPLEX (PKMTR)

Note: This is SATELLITE DEBRIS
Your satellite tracking list
Your tracking list is empty




NASA's NSSDC Master Catalog

Two Line Element Set (TLE):
1 57725U 91033N   26068.34713300 -.00000053  00000-0 -35082-3 0  9996
2 57725  82.8255  32.3851 0104001 286.8770  72.0938 12.61330647121516
Source of the keplerian elements: AFSPC